Location: Gorze? G�rny
(49.8500°N, 19.5000°E)
Time: 04:43:26
(UTC+00:00)

Lacrosse 5 - Pass Details

Date: 13 May 2021
Orbit: 715 x 724 km, 57.0° (Epoch: 15 June)

Event Time Altitude Azimuth Distance (km) Brightness Sun altitude
Exits shadow 23:50:36 39° 224° (SW) 1,072 2.3 -19.7°
Maximum altitude 23:52:31 80° 143° (SE) 734 1.8 -19.6°
Drops below altitude 10° 23:57:36 10° 58° (ENE) 2,209 5.1 -19.3°
Sets 23:59:59 0° 57° (ENE) 3,133 6.0 -19.2°
